| time (UTC) | temp C | wind direction | speed KPH | gust KPH | rain 1hr cm | rain 24hr cm | rain mn cm | humidity % | barometer mb |
| 20260503071735 | 11 | 259 | 0.0 | 0.0 | 0.00 | 0.00 | 0.00 | 60 | 1199.3 |
| 20260503071232 | 11 | 259 | 0.0 | 0.0 | 0.00 | 0.00 | 0.00 | 60 | 1199.5 |
| 20260503070728 | 11 | 262 | 0.0 | 0.0 | 0.00 | 0.00 | 0.00 | 62 | 1199.3 |
| 20260503070226 | 11 | 262 | 0.0 | 0.0 | 0.00 | 0.00 | 0.00 | 63 | 1199.5 |
| 20260503060145 | 11 | 243 | 0.0 | 0.0 | 0.00 | 0.03 | 0.03 | 63 | 1199.3 |
| 20260503054632 | 12 | 273 | 0.0 | 0.0 | 0.00 | 0.03 | 0.03 | 59 | 1199.5 |
| 20260503054130 | 12 | 273 | 0.0 | 0.0 | 0.00 | 0.03 | 0.03 | 58 | 1199.6 |
| 20260503053627 | 13 | 274 | 0.0 | 1.6 | 0.00 | 0.03 | 0.03 | 56 | 1199.5 |
| 20260503053126 | 13 | 260 | 0.0 | 0.0 | 0.00 | 0.03 | 0.03 | 55 | 1199.3 |
| 20260503052622 | 13 | 256 | 0.0 | 11.3 | 0.00 | 0.03 | 0.03 | 55 | 1199.4 |
| 20260503052118 | 13 | 245 | 6.4 | 14.5 | 0.00 | 0.03 | 0.03 | 55 | 1199.4 |
| 20260503051614 | 13 | 228 | 3.2 | 12.9 | 0.00 | 0.03 | 0.03 | 55 | 1199.0 |
| 20260503051112 | 13 | 205 | 6.4 | 12.9 | 0.00 | 0.03 | 0.03 | 55 | 1199.0 |
| 20260503050608 | 13 | 222 | 6.4 | 16.1 | 0.00 | 0.03 | 0.03 | 54 | 1199.2 |
| 20260503050105 | 13 | 165 | 14.5 | 17.7 | 0.00 | 0.03 | 0.03 | 53 | 1199.0 |
| 20260503045602 | 13 | 162 | 14.5 | 20.9 | 0.00 | 0.03 | 0.03 | 53 | 1199.2 |
| 20260503045059 | 14 | 203 | 11.3 | 24.1 | 0.00 | 0.03 | 0.03 | 53 | 1199.0 |
| 20260503044555 | 13 | 206 | 8.0 | 20.9 | 0.00 | 0.03 | 0.03 | 53 | 1199.2 |
| 20260503044054 | 13 | 183 | 12.9 | 14.5 | 0.00 | 0.03 | 0.03 | 54 | 1199.2 |
| 20260503043549 | 13 | 219 | 9.7 | 20.9 | 0.00 | 0.03 | 0.03 | 54 | 1199.3 |
| 20260503043046 | 14 | 193 | 17.7 | 32.2 | 0.00 | 0.03 | 0.03 | 53 | 1198.8 |
| 20260503042543 | 15 | 194 | 22.5 | 27.4 | 0.00 | 0.03 | 0.03 | 51 | 1199.3 |
| 20260503042039 | 15 | 196 | 14.5 | 27.4 | 0.00 | 0.03 | 0.03 | 50 | 1198.9 |
| 20260503041536 | 14 | 171 | 14.5 | 22.5 | 0.00 | 0.03 | 0.03 | 50 | 1198.6 |
| 20260503041034 | 15 | 224 | 8.0 | 20.9 | 0.00 | 0.03 | 0.03 | 51 | 1198.9 |
| 20260503040531 | 15 | 179 | 9.7 | 12.9 | 0.00 | 0.03 | 0.03 | 50 | 1198.9 |
| 20260503040028 | 13 | 251 | 0.0 | 14.5 | 0.00 | 0.03 | 0.03 | 56 | 1198.6 |
| 20260503035525 | 13 | 258 | 0.0 | 0.0 | 0.00 | 0.03 | 0.03 | 60 | 1198.7 |
| 20260503035023 | 13 | 258 | 0.0 | 0.0 | 0.00 | 0.03 | 0.03 | 60 | 1198.5 |
| 20260503034520 | 14 | 254 | 0.0 | 0.0 | 0.00 | 0.03 | 0.03 | 54 | 1198.5 |
| 20260503034017 | 14 | 257 | 0.0 | 0.0 | 0.00 | 0.03 | 0.03 | 53 | 1198.4 |
| 20260503033514 | 14 | 257 | 0.0 | 0.0 | 0.00 | 0.03 | 0.03 | 54 | 1198.1 |
| 20260503033012 | 13 | 263 | 0.0 | 0.0 | 0.00 | 0.03 | 0.03 | 58 | 1198.2 |
| 20260503032510 | 13 | 263 | 0.0 | 0.0 | 0.00 | 0.03 | 0.03 | 59 | 1198.0 |
| 20260503032008 | 13 | 271 | 0.0 | 0.0 | 0.00 | 0.03 | 0.03 | 60 | 1197.9 |
| 20260503031505 | 13 | 271 | 0.0 | 0.0 | 0.00 | 0.03 | 0.03 | 59 | 1198.0 |
| 20260503031002 | 13 | 274 | 0.0 | 0.0 | 0.00 | 0.03 | 0.03 | 62 | 1197.9 |
| 20260503030458 | 13 | 267 | 0.0 | 0.0 | 0.00 | 0.03 | 0.03 | 65 | 1198.0 |
| 20260503025955 | 14 | 270 | 0.0 | 0.0 | 0.00 | 0.03 | 0.03 | 61 | 1198.0 |
| 20260503025452 | 15 | 258 | 0.0 | 0.0 | 0.00 | 0.03 | 0.03 | 57 | 1197.7 |
| 20260503024950 | 15 | 254 | 0.0 | 0.0 | 0.00 | 0.03 | 0.03 | 55 | 1197.4 |
| 20260503024446 | 15 | 254 | 0.0 | 0.0 | 0.00 | 0.03 | 0.03 | 55 | 1197.6 |
| 20260503023943 | 15 | 252 | 0.0 | 0.0 | 0.00 | 0.03 | 0.03 | 54 | 1197.3 |
| 20260503023440 | 15 | 230 | 1.6 | 3.2 | 0.00 | 0.03 | 0.03 | 53 | 1197.6 |
| 20260503022937 | 15 | 195 | 6.4 | 11.3 | 0.00 | 0.03 | 0.03 | 52 | 1197.6 |
| 20260503022432 | 15 | 204 | 6.4 | 16.1 | 0.00 | 0.03 | 0.03 | 53 | 1197.6 |
| 20260503021928 | 15 | 201 | 11.3 | 16.1 | 0.00 | 0.03 | 0.03 | 52 | 1197.4 |
| 20260503021424 | 16 | 182 | 6.4 | 9.7 | 0.00 | 0.03 | 0.03 | 52 | 1197.6 |
| 20260503020922 | 15 | 196 | 8.0 | 14.5 | 0.00 | 0.03 | 0.03 | 52 | 1197.6 |
| 20260503020420 | 15 | 257 | 0.0 | 0.0 | 0.00 | 0.03 | 0.03 | 54 | 1197.4 |
| 20260503015916 | 15 | 253 | 0.0 | 3.2 | 0.00 | 0.03 | 0.03 | 54 | 1197.6 |
| 20260503015413 | 15 | 250 | 0.0 | 8.0 | 0.00 | 0.03 | 0.03 | 54 | 1197.4 |
| 20260503014908 | 14 | 249 | 0.0 | 1.6 | 0.18 | 0.03 | 0.03 | 59 | 1197.2 |
| 20260503014406 | 17 | 234 | 16.1 | 22.5 | 0.00 | 0.00 | 0.00 | 46 | 1197.7 |
| 20260503013904 | 17 | 203 | 9.7 | 25.7 | 0.00 | 0.00 | 0.00 | 39 | 1197.3 |
| 20260503013401 | 18 | 214 | 9.7 | 24.1 | 0.00 | 0.00 | 0.00 | 36 | 1197.1 |
| 20260503012858 | 18 | 171 | 8.0 | 14.5 | 0.00 | 0.00 | 0.00 | 35 | 1196.9 |
| 20260503012356 | 18 | 242 | 3.2 | 22.5 | 0.00 | 0.00 | 0.00 | 34 | 1196.8 |
| 20260503011852 | 18 | 198 | 11.3 | 17.7 | 0.00 | 0.00 | 0.00 | 33 | 1196.5 |
| 20260503011349 | 18 | 258 | 12.9 | 22.5 | 0.00 | 0.00 | 0.00 | 33 | 1196.8 |
| 20260503010845 | 18 | 180 | 9.7 | 16.1 | 0.00 | 0.00 | 0.00 | 35 | 1196.7 |
| 20260503010342 | 19 | 221 | 8.0 | 25.7 | 0.00 | 0.00 | 0.00 | 34 | 1196.8 |
| 20260503005839 | 19 | 197 | 12.9 | 20.9 | 0.00 | 0.00 | 0.00 | 33 | 1196.7 |
| 20260503005337 | 19 | 231 | 4.8 | 8.0 | 0.00 | 0.00 | 0.00 | 35 | 1196.8 |
| 20260503004833 | 20 | 227 | 3.2 | 4.8 | 0.00 | 0.00 | 0.00 | 34 | 1196.7 |
| 20260503004330 | 20 | 246 | 3.2 | 4.8 | 0.00 | 0.00 | 0.00 | 35 | 1196.5 |
| 20260503003828 | 20 | 277 | 0.0 | 4.8 | 0.00 | 0.00 | 0.00 | 34 | 1196.3 |
| 20260503003325 | 21 | 272 | 4.8 | 11.3 | 0.00 | 0.00 | 0.00 | 32 | 1196.4 |
| 20260503002821 | 21 | 289 | 0.0 | 3.2 | 0.00 | 0.00 | 0.00 | 33 | 1196.3 |
| 20260503002319 | 21 | 264 | 4.8 | 14.5 | 0.00 | 0.00 | 0.00 | 32 | 1196.4 |
| 20260503001815 | 21 | 263 | 0.0 | 11.3 | 0.00 | 0.00 | 0.00 | 28 | 1196.3 |
| 20260503001311 | 19 | 273 | 11.3 | 16.1 | 0.00 | 0.00 | 0.00 | 31 | 1196.4 |
| 20260503000809 | 20 | 213 | 14.5 | 25.7 | 0.00 | 0.00 | 0.00 | 31 | 1196.4 |
| 20260503000306 | 20 | 239 | 11.3 | 14.5 | 0.00 | 0.00 | 0.00 | 31 | 1196.2 |
| 20260502235803 | 20 | 195 | 3.2 | 12.9 | 0.00 | 0.00 | 0.00 | 31 | 1195.9 |
| 20260502235301 | 21 | 208 | 9.7 | 16.1 | 0.00 | 0.00 | 0.00 | 29 | 1196.1 |
| 20260502234757 | 22 | 171 | 17.7 | 20.9 | 0.00 | 0.00 | 0.00 | 28 | 1196.2 |
| 20260502234254 | 21 | 249 | 4.8 | 16.1 | 0.00 | 0.00 | 0.00 | 29 | 1196.3 |
| 20260502233750 | 20 | 205 | 6.4 | 9.7 | 0.00 | 0.00 | 0.00 | 31 | 1196.4 |
| 20260502233247 | 20 | 194 | 6.4 | 9.7 | 0.00 | 0.00 | 0.00 | 31 | 1196.3 |
| 20260502232743 | 20 | 242 | 8.0 | 12.9 | 0.00 | 0.00 | 0.00 | 31 | 1196.5 |
| 20260502232240 | 21 | 172 | 11.3 | 20.9 | 0.00 | 0.00 | 0.00 | 29 | 1196.4 |
| 20260502231737 | 21 | 255 | 1.6 | 12.9 | 0.00 | 0.00 | 0.00 | 29 | 1196.8 |
| 20260502231235 | 21 | 261 | 3.2 | 12.9 | 0.00 | 0.00 | 0.00 | 30 | 1196.8 |
| 20260502230733 | 21 | 215 | 9.7 | 25.7 | 0.00 | 0.00 | 0.00 | 30 | 1196.8 |
| 20260502230231 | 21 | 245 | 8.0 | 12.9 | 0.00 | 0.00 | 0.00 | 29 | 1196.8 |
| 20260502225727 | 21 | 161 | 11.3 | 16.1 | 0.00 | 0.00 | 0.00 | 32 | 1197.2 |
| 20260502225224 | 21 | 227 | 9.7 | 12.9 | 0.00 | 0.00 | 0.00 | 28 | 1197.2 |
| 20260502224720 | 20 | 214 | 6.4 | 11.3 | 0.00 | 0.00 | 0.00 | 31 | 1197.3 |
| 20260502224217 | 21 | 190 | 9.7 | 25.7 | 0.00 | 0.00 | 0.00 | 32 | 1197.0 |
| 20260502223715 | 21 | 197 | 6.4 | 11.3 | 0.00 | 0.00 | 0.00 | 31 | 1197.1 |
| 20260502223213 | 21 | 166 | 11.3 | 12.9 | 0.00 | 0.00 | 0.00 | 33 | 1197.4 |
| 20260502222710 | 20 | 177 | 11.3 | 25.7 | 0.00 | 0.00 | 0.00 | 33 | 1197.6 |
| 20260502222206 | 21 | 178 | 6.4 | 17.7 | 0.00 | 0.00 | 0.00 | 34 | 1197.4 |
| 20260502221702 | 21 | 245 | 8.0 | 12.9 | 0.00 | 0.00 | 0.00 | 33 | 1197.7 |
| 20260502221159 | 20 | 191 | 8.0 | 14.5 | 0.00 | 0.00 | 0.00 | 33 | 1197.8 |
| 20260502220655 | 20 | 190 | 6.4 | 14.5 | 0.00 | 0.00 | 0.00 | 33 | 1197.9 |
| 20260502220152 | 21 | 242 | 6.4 | 11.3 | 0.00 | 0.00 | 0.00 | 32 | 1198.0 |
| 20260502215649 | 20 | 256 | 3.2 | 16.1 | 0.00 | 0.00 | 0.00 | 33 | 1198.0 |
| 20260502215146 | 20 | 236 | 1.6 | 9.7 | 0.00 | 0.00 | 0.00 | 34 | 1198.0 |
| 20260502214643 | 20 | 239 | 3.2 | 12.9 | 0.00 | 0.00 | 0.00 | 33 | 1198.1 |
| 20260502214140 | 21 | 242 | 14.5 | 16.1 | 0.00 | 0.00 | 0.00 | 32 | 1198.0 |
| 20260502213637 | 20 | 253 | 0.0 | 8.0 | 0.00 | 0.00 | 0.00 | 33 | 1198.5 |
| 20260502213134 | 21 | 207 | 8.0 | 11.3 | 0.00 | 0.00 | 0.00 | 32 | 1198.2 |
| 20260502212633 | 21 | 271 | 1.6 | 11.3 | 0.00 | 0.00 | 0.00 | 32 | 1198.2 |
| 20260502212131 | 20 | 195 | 6.4 | 16.1 | 0.00 | 0.00 | 0.00 | 32 | 1198.1 |
| 20260502211626 | 20 | 254 | 4.8 | 11.3 | 0.00 | 0.00 | 0.00 | 33 | 1198.0 |
| 20260502211123 | 20 | 264 | 0.0 | 8.0 | 0.00 | 0.00 | 0.00 | 32 | 1198.4 |
| 20260502210620 | 21 | 245 | 4.8 | 9.7 | 0.00 | 0.00 | 0.00 | 33 | 1198.2 |
| 20260502210112 | 21 | 254 | 1.6 | 8.0 | 0.00 | 0.00 | 0.00 | 31 | 1198.5 |
| 20260502205608 | 21 | 262 | 0.0 | 8.0 | 0.00 | 0.00 | 0.00 | 33 | 1198.4 |
| 20260502205106 | 21 | 237 | 3.2 | 8.0 | 0.00 | 0.00 | 0.00 | 33 | 1198.2 |
| 20260502204602 | 21 | 240 | 3.2 | 8.0 | 0.00 | 0.00 | 0.00 | 33 | 1198.4 |
| 20260502204100 | 20 | 263 | 0.0 | 3.2 | 0.00 | 0.00 | 0.00 | 33 | 1198.5 |
| 20260502203557 | 20 | 242 | 4.8 | 12.9 | 0.00 | 0.00 | 0.00 | 34 | 1198.5 |
| 20260502203054 | 20 | 245 | 4.8 | 9.7 | 0.00 | 0.00 | 0.00 | 34 | 1198.6 |
| 20260502202550 | 20 | 197 | 6.4 | 9.7 | 0.00 | 0.00 | 0.00 | 34 | 1198.6 |
| 20260502202048 | 20 | 212 | 8.0 | 11.3 | 0.00 | 0.00 | 0.00 | 34 | 1198.2 |
| 20260502201544 | 20 | 296 | 8.0 | 16.1 | 0.00 | 0.00 | 0.00 | 33 | 1198.6 |
| 20260502201041 | 19 | 226 | 3.2 | 4.8 | 0.00 | 0.00 | 0.00 | 34 | 1198.5 |
| 20260502200536 | 19 | 219 | 0.0 | 14.5 | 0.00 | 0.00 | 0.00 | 34 | 1198.6 |
| 20260502200035 | 19 | 294 | 0.0 | 8.0 | 0.00 | 0.00 | 0.00 | 34 | 1198.5 |
| 20260502195532 | 19 | 254 | 0.0 | 9.7 | 0.00 | 0.00 | 0.00 | 35 | 1198.8 |
| 20260502195028 | 19 | 219 | 6.4 | 11.3 | 0.00 | 0.00 | 0.00 | 35 | 1198.8 |
| 20260502194525 | 19 | 227 | 3.2 | 12.9 | 0.00 | 0.00 | 0.00 | 35 | 1199.0 |
| 20260502194021 | 19 | 231 | 4.8 | 27.4 | 0.00 | 0.00 | 0.00 | 35 | 1198.6 |
| 20260502193518 | 19 | 256 | 0.0 | 8.0 | 0.00 | 0.00 | 0.00 | 34 | 1198.6 |
| 20260502193015 | 19 | 225 | 4.8 | 14.5 | 0.00 | 0.00 | 0.00 | 35 | 1198.8 |
| 20260502192510 | 19 | 240 | 4.8 | 14.5 | 0.00 | 0.00 | 0.00 | 34 | 1198.9 |
| 20260502192008 | 19 | 254 | 3.2 | 4.8 | 0.00 | 0.00 | 0.00 | 34 | 1198.8 |
| 20260502191505 | 19 | 247 | 0.0 | 8.0 | 0.00 | 0.00 | 0.00 | 34 | 1198.8 |
| 20260502191003 | 19 | 254 | 1.6 | 8.0 | 0.00 | 0.00 | 0.00 | 33 | 1198.6 |
| 20260502190500 | 19 | 206 | 3.2 | 9.7 | 0.00 | 0.00 | 0.00 | 34 | 1199.0 |
| 20260502185956 | 20 | 239 | 1.6 | 8.0 | 0.00 | 0.00 | 0.00 | 34 | 1198.7 |
| 20260502185452 | 19 | 234 | 4.8 | 9.7 | 0.00 | 0.00 | 0.00 | 34 | 1198.9 |
| 20260502184948 | 18 | 261 | 0.0 | 1.6 | 0.00 | 0.00 | 0.00 | 37 | 1198.7 |
| 20260502184438 | 18 | 264 | 0.0 | 1.6 | 0.00 | 0.00 | 0.00 | 36 | 1198.7 |
| 20260502183935 | 18 | 265 | 0.0 | 0.0 | 0.00 | 0.00 | 0.00 | 36 | 1198.5 |
| 20260502183431 | 18 | 273 | 0.0 | 0.0 | 0.00 | 0.00 | 0.00 | 36 | 1198.8 |
| 20260502182926 | 18 | 269 | 0.0 | 0.0 | 0.00 | 0.00 | 0.00 | 37 | 1198.6 |
| 20260502182422 | 18 | 271 | 0.0 | 1.6 | 0.00 | 0.00 | 0.00 | 38 | 1198.7 |
| 20260502181918 | 18 | 292 | 0.0 | 1.6 | 0.00 | 0.00 | 0.00 | 36 | 1198.6 |
| 20260502181417 | 17 | 258 | 0.0 | 0.0 | 0.00 | 0.00 | 0.00 | 36 | 1198.9 |
| 20260502180915 | 17 | 259 | 0.0 | 0.0 | 0.00 | 0.00 | 0.00 | 36 | 1198.6 |
| 20260502180412 | 17 | 276 | 0.0 | 4.8 | 0.00 | 0.00 | 0.00 | 36 | 1198.6 |
| 20260502170331 | 16 | 250 | 0.0 | 4.8 | 0.00 | 0.00 | 0.00 | 38 | 1198.5 |
| 20260502164318 | 16 | 275 | 0.0 | 0.0 | 0.00 | 0.00 | 0.00 | 39 | 1198.5 |
| 20260502163814 | 16 | 272 | 0.0 | 1.6 | 0.00 | 0.00 | 0.00 | 43 | 1198.5 |
| 20260502163310 | 16 | 268 | 0.0 | 0.0 | 0.00 | 0.00 | 0.00 | 41 | 1198.8 |
| 20260502162808 | 16 | 264 | 0.0 | 0.0 | 0.00 | 0.00 | 0.00 | 46 | 1198.7 |
| 20260502162305 | 16 | 269 | 0.0 | 0.0 | 0.00 | 0.00 | 0.00 | 45 | 1198.7 |
| 20260502161802 | 15 | 268 | 0.0 | 0.0 | 0.00 | 0.00 | 0.00 | 43 | 1198.6 |
| 20260502161257 | 15 | 256 | 0.0 | 0.0 | 0.00 | 0.00 | 0.00 | 43 | 1198.8 |
| 20260502160756 | 13 | 262 | 0.0 | 0.0 | 0.00 | 0.00 | 0.00 | 47 | 1198.9 |
| 20260502160255 | 12 | 256 | 0.0 | 0.0 | 0.00 | 0.00 | 0.00 | 47 | 1198.6 |
| 20260502152224 | 10 | 258 | 0.0 | 0.0 | 0.00 | 0.00 | 0.00 | 59 | 1198.6 |
| 20260502151721 | 10 | 258 | 0.0 | 0.0 | 0.00 | 0.00 | 0.00 | 61 | 1198.5 |
| 20260502151218 | 9 | 258 | 0.0 | 0.0 | 0.00 | 0.00 | 0.00 | 62 | 1198.6 |
| 20260502150716 | 9 | 260 | 0.0 | 0.0 | 0.00 | 0.00 | 0.00 | 65 | 1198.6 |
| 20260502150212 | 9 | 259 | 0.0 | 0.0 | 0.00 | 0.00 | 0.00 | 66 | 1198.2 |
| 20260502130601 | 7 | 268 | 0.0 | 0.0 | 0.00 | 0.00 | 0.00 | 67 | 1197.8 |
| 20260502123544 | 7 | 260 | 0.0 | 0.0 | 0.00 | 0.00 | 0.00 | 66 | 1197.8 |
| 20260502123040 | 7 | 262 | 0.0 | 0.0 | 0.00 | 0.00 | 0.00 | 67 | 1197.8 |
| 20260502122537 | 7 | 262 | 0.0 | 0.0 | 0.00 | 0.00 | 0.00 | 67 | 1197.8 |
| 20260502122034 | 7 | 262 | 0.0 | 0.0 | 0.00 | 0.00 | 0.00 | 68 | 1197.8 |
| 20260502121532 | 7 | 262 | 0.0 | 0.0 | 0.00 | 0.00 | 0.00 | 67 | 1197.8 |
| 20260502121029 | 7 | 262 | 0.0 | 0.0 | 0.00 | 0.00 | 0.00 | 67 | 1197.9 |
| 20260502120525 | 6 | 263 | 0.0 | 0.0 | 0.00 | 0.00 | 0.00 | 68 | 1197.7 |
| 20260502115520 | 7 | 260 | 0.0 | 0.0 | 0.00 | 0.00 | 0.00 | 65 | 1197.7 |
| 20260502115016 | 7 | 260 | 0.0 | 0.0 | 0.00 | 0.00 | 0.00 | 65 | 1197.9 |
| 20260502114513 | 7 | 260 | 0.0 | 0.0 | 0.00 | 0.00 | 0.00 | 65 | 1197.8 |
| 20260502114009 | 7 | 260 | 0.0 | 0.0 | 0.00 | 0.00 | 0.00 | 64 | 1197.6 |
| 20260502113507 | 7 | 260 | 0.0 | 0.0 | 0.00 | 0.00 | 0.00 | 65 | 1197.7 |
| 20260502113005 | 7 | 260 | 0.0 | 0.0 | 0.00 | 0.00 | 0.00 | 66 | 1197.6 |
| 20260502112503 | 7 | 260 | 0.0 | 0.0 | 0.00 | 0.00 | 0.00 | 66 | 1197.9 |
| 20260502112000 | 7 | 260 | 0.0 | 0.0 | 0.00 | 0.00 | 0.00 | 67 | 1197.9 |
| 20260502111457 | 7 | 260 | 0.0 | 0.0 | 0.00 | 0.00 | 0.00 | 66 | 1197.9 |
| 20260502110955 | 7 | 260 | 0.0 | 0.0 | 0.00 | 0.00 | 0.00 | 66 | 1198.1 |
| 20260502110452 | 7 | 260 | 0.0 | 0.0 | 0.00 | 0.00 | 0.00 | 65 | 1197.8 |
| 20260502105949 | 7 | 260 | 0.0 | 0.0 | 0.00 | 0.00 | 0.00 | 64 | 1198.0 |
| 20260502105447 | 7 | 260 | 0.0 | 0.0 | 0.00 | 0.00 | 0.00 | 63 | 1198.0 |
| 20260502104944 | 7 | 260 | 0.0 | 0.0 | 0.00 | 0.00 | 0.00 | 63 | 1198.0 |
| 20260502104441 | 7 | 260 | 0.0 | 0.0 | 0.00 | 0.00 | 0.00 | 63 | 1198.1 |
| 20260502103939 | 7 | 260 | 0.0 | 0.0 | 0.00 | 0.00 | 0.00 | 63 | 1198.0 |
| 20260502103436 | 8 | 260 | 0.0 | 0.0 | 0.00 | 0.00 | 0.00 | 62 | 1198.0 |
| 20260502102933 | 8 | 260 | 0.0 | 0.0 | 0.00 | 0.00 | 0.00 | 60 | 1198.0 |
| 20260502102430 | 8 | 260 | 0.0 | 0.0 | 0.00 | 0.00 | 0.00 | 60 | 1198.0 |
| 20260502101927 | 8 | 260 | 0.0 | 0.0 | 0.00 | 0.00 | 0.00 | 60 | 1198.0 |
| 20260502101425 | 9 | 260 | 0.0 | 0.0 | 0.00 | 0.00 | 0.00 | 59 | 1198.1 |
| 20260502100923 | 9 | 260 | 0.0 | 0.0 | 0.00 | 0.00 | 0.00 | 59 | 1198.1 |
| 20260502100422 | 9 | 260 | 0.0 | 0.0 | 0.00 | 0.00 | 0.00 | 58 | 1198.0 |
| 20260502091356 | 9 | 255 | 0.0 | 0.0 | 0.00 | 0.00 | 0.00 | 55 | 1198.2 |
| 20260502090854 | 9 | 255 | 0.0 | 0.0 | 0.00 | 0.00 | 0.00 | 55 | 1198.5 |
| 20260502090350 | 9 | 255 | 0.0 | 0.0 | 0.00 | 0.00 | 0.00 | 55 | 1198.7 |